When you browse on this site, cookies collect data to enhance your experience and personalize the content and advertising you see.
Visit our Privacy Policy to learn more. By continuing to use the site, you agree to this use of cookies and data.
  • In Österreich
  • Länderverzeichnis
  • Für 7 Tage
  • Wassertemperatur
  • Wetterkarte
  • News
  • Widgets
  • user-avatar
    Anmelden

    Stündliche Wetter Sylchet

    Heute, 29 Februar, Samstag

    Zeit Temperatur Niederschläge Wind Luftdruck Luftfeuchtigkeit
    00:00 +20°C° 0 mm 1 m/S 759 mmHg 59%
    01:00 +20°C° 0 mm 1 m/S 758 mmHg 61%
    02:00 +19°C° 0 mm 1 m/S 757 mmHg 63%
    03:00 +19°C° 0 mm 1 m/S 757 mmHg 65%
    04:00 +19°C° 0 mm 1 m/S 757 mmHg 67%
    05:00 +18°C° 0 mm 1 m/S 757 mmHg 68%
    06:00 +18°C° 0 mm 1 m/S 757 mmHg 70%
    07:00 +20°C° 0 mm 1 m/S 758 mmHg 63%
    08:00 +23°C° 0 mm 2 m/S 758 mmHg 57%
    09:00 +25°C° 0 mm 2 m/S 758 mmHg 50%
    10:00 +27°C° 0 mm 2 m/S 758 mmHg 44%
    11:00 +30°C° 0 mm 1 m/S 758 mmHg 39%
    12:00 +32°C° 0 mm 1 m/S 757 mmHg 33%
    13:00 +32°C° 0 mm 1 m/S 757 mmHg 31%
    14:00 +33°C° 0 mm 1 m/S 756 mmHg 29%
    15:00 +33°C° 0 mm 1 m/S 755 mmHg 27%
    16:00 +31°C° 0 mm 2 m/S 755 mmHg 33%
    17:00 +29°C° 0 mm 2 m/S 755 mmHg 39%
    18:00 +26°C° 0 mm 2 m/S 755 mmHg 45%
    19:00 +25°C° 0 mm 2 m/S 756 mmHg 45%
    20:00 +25°C° 0 mm 2 m/S 757 mmHg 46%
    21:00 +24°C° 0 mm 1 m/S 757 mmHg 46%
    22:00 +23°C° 0 mm 1 m/S 757 mmHg 49%
    23:00 +22°C° 0 mm 1 m/S 758 mmHg 52%

    Morgen, 1 März, Sonntag

    Zeit Temperatur Niederschläge Wind Luftdruck Luftfeuchtigkeit
    00:00 +19°C° 0 mm 0 m/S 758 mmHg 55%
    01:00 +21°C° 0 mm 1 m/S 757 mmHg 56%
    02:00 +20°C° 0 mm 1 m/S 757 mmHg 57%
    03:00 +20°C° 0 mm 1 m/S 757 mmHg 58%
    04:00 +19°C° 0 mm 1 m/S 757 mmHg 60%
    05:00 +19°C° 0 mm 1 m/S 757 mmHg 63%
    06:00 +18°C° 0 mm 1 m/S 757 mmHg 65%
    07:00 +21°C° 0 mm 1 m/S 758 mmHg 59%
    08:00 +23°C° 0 mm 1 m/S 758 mmHg 53%
    09:00 +26°C° 0 mm 1 m/S 759 mmHg 47%
    10:00 +28°C° 0 mm 1 m/S 758 mmHg 42%
    11:00 +31°C° 0 mm 1 m/S 758 mmHg 36%
    12:00 +33°C° 0 mm 1 m/S 757 mmHg 31%
    13:00 +33°C° 0 mm 1 m/S 756 mmHg 30%
    14:00 +34°C° 0 mm 2 m/S 756 mmHg 28%
    15:00 +34°C° 0 mm 3 m/S 755 mmHg 27%
    16:00 +31°C° 0 mm 2 m/S 755 mmHg 32%
    17:00 +29°C° 0 mm 2 m/S 755 mmHg 37%
    18:00 +26°C° 0 mm 1 m/S 755 mmHg 42%
    19:00 +26°C° 0 mm 1 m/S 756 mmHg 43%
    20:00 +25°C° 0 mm 1 m/S 756 mmHg 44%
    21:00 +24°C° 0 mm 1 m/S 757 mmHg 44%
    22:00 +23°C° 0 mm 1 m/S 757 mmHg 47%
    23:00 +23°C° 0 mm 1 m/S 757 mmHg 49%

    übermorgen, 2 März, Montag

    Zeit Temperatur Niederschläge Wind Luftdruck Luftfeuchtigkeit
    00:00 +22°C° 0 mm 1 m/S 757 mmHg 51%
    01:00 +21°C° 0 mm 1 m/S 757 mmHg 53%
    02:00 +21°C° 0 mm 1 m/S 756 mmHg 55%
    03:00 +20°C° 0 mm 1 m/S 756 mmHg 57%
    04:00 +20°C° 0 mm 1 m/S 756 mmHg 59%
    05:00 +19°C° 0 mm 1 m/S 756 mmHg 61%
    06:00 +19°C° 0 mm 1 m/S 757 mmHg 63%
    07:00 +21°C° 0 mm 1 m/S 757 mmHg 57%
    08:00 +24°C° 0 mm 1 m/S 758 mmHg 51%
    09:00 +24°C° 0 mm 0 m/S 758 mmHg 45%
    10:00 +28°C° 0 mm 1 m/S 758 mmHg 41%
    11:00 +31°C° 0 mm 1 m/S 757 mmHg 36%
    12:00 +33°C° 0 mm 1 m/S 757 mmHg 32%
    13:00 +34°C° 0 mm 2 m/S 756 mmHg 30%
    14:00 +34°C° 0 mm 3 m/S 755 mmHg 28%
    15:00 +35°C° 0 mm 3 m/S 755 mmHg 27%
    16:00 +32°C° 0 mm 2 m/S 755 mmHg 32%
    17:00 +30°C° 0 mm 2 m/S 755 mmHg 37%
    18:00 +27°C° 0 mm 1 m/S 755 mmHg 42%
    19:00 +27°C° 0 mm 1 m/S 755 mmHg 43%
    20:00 +26°C° 0 mm 1 m/S 756 mmHg 44%
    21:00 +25°C° 0 mm 1 m/S 756 mmHg 45%
    22:00 +24°C° 0 mm 1 m/S 756 mmHg 46%
    23:00 +24°C° 0 mm 1 m/S 756 mmHg 47%

    3 März, Dienstag

    Zeit Temperatur Niederschläge Wind Luftdruck Luftfeuchtigkeit
    00:00 +23°C° 0 mm 1 m/S 756 mmHg 48%
    01:00 +22°C° 0 mm 1 m/S 756 mmHg 51%
    02:00 +22°C° 0 mm 1 m/S 756 mmHg 53%
    03:00 +21°C° 0 mm 1 m/S 756 mmHg 55%
    04:00 +20°C° 0.1 mm 1 m/S 756 mmHg 60%
    05:00 +20°C° 0.1 mm 1 m/S 756 mmHg 64%
    06:00 +19°C° 0.1 mm 1 m/S 756 mmHg 69%
    07:00 +21°C° 0.2 mm 1 m/S 757 mmHg 65%
    08:00 +23°C° 0.2 mm 1 m/S 758 mmHg 61%
    09:00 +25°C° 0.2 mm 1 m/S 758 mmHg 57%
    10:00 +28°C° 0.1 mm 1 m/S 758 mmHg 50%
    11:00 +30°C° 0.1 mm 1 m/S 757 mmHg 43%
    12:00 +33°C° 0.1 mm 1 m/S 757 mmHg 36%
    13:00 +33°C° 0 mm 1 m/S 756 mmHg 34%
    14:00 +35°C° 0 mm 2 m/S 755 mmHg 33%
    15:00 +35°C° 0 mm 3 m/S 754 mmHg 31%
    16:00 +32°C° 0 mm 2 m/S 754 mmHg 37%
    17:00 +30°C° 0 mm 2 m/S 754 mmHg 42%
    18:00 +28°C° 0 mm 1 m/S 754 mmHg 48%
    19:00 +27°C° 0.1 mm 1 m/S 754 mmHg 52%
    20:00 +25°C° 0.1 mm 2 m/S 755 mmHg 56%
    21:00 +24°C° 0.1 mm 2 m/S 756 mmHg 60%
    22:00 +23°C° 0.4 mm 2 m/S 756 mmHg 65%
    23:00 +23°C° 0.4 mm 1 m/S 756 mmHg 70%

    4 März, Mittwoch

    Zeit Temperatur Niederschläge Wind Luftdruck Luftfeuchtigkeit
    00:00 +22°C° 0.4 mm 1 m/S 756 mmHg 74%
    01:00 +20°C° 1.8 mm 2 m/S 756 mmHg 80%
    02:00 +20°C° 1.8 mm 2 m/S 756 mmHg 85%
    03:00 +19°C° 1.8 mm 2 m/S 756 mmHg 91%
    04:00 +19°C° 0.1 mm 3 m/S 756 mmHg 91%
    05:00 +19°C° 0.1 mm 3 m/S 756 mmHg 92%
    06:00 +18°C° 0.1 mm 3 m/S 756 mmHg 92%
    07:00 +20°C° 0 mm 3 m/S 757 mmHg 86%
    08:00 +22°C° 0 mm 3 m/S 758 mmHg 80%
    09:00 +25°C° 0 mm 3 m/S 758 mmHg 73%
    10:00 +27°C° 0 mm 2 m/S 758 mmHg 64%
    11:00 +29°C° 0 mm 2 m/S 757 mmHg 55%
    12:00 +32°C° 0 mm 1 m/S 757 mmHg 46%
    13:00 +32°C° 0 mm 2 m/S 756 mmHg 43%
    14:00 +34°C° 0 mm 2 m/S 755 mmHg 41%
    15:00 +35°C° 0 mm 3 m/S 754 mmHg 38%
    16:00 +30°C° 0.5 mm 3 m/S 754 mmHg 50%
    17:00 +27°C° 0.5 mm 4 m/S 754 mmHg 62%
    18:00 +22°C° 0.5 mm 5 m/S 754 mmHg 74%
    19:00 +21°C° 0.5 mm 4 m/S 755 mmHg 78%
    20:00 +20°C° 0.5 mm 2 m/S 756 mmHg 81%
    21:00 +21°C° 0.5 mm 1 m/S 757 mmHg 85%
    22:00 +20°C° 0.1 mm 1 m/S 757 mmHg 87%
    23:00 +19°C° 0.1 mm 2 m/S 757 mmHg 89%

    5 März, Donnerstag

    Zeit Temperatur Niederschläge Wind Luftdruck Luftfeuchtigkeit
    00:00 +19°C° 0.1 mm 2 m/S 758 mmHg 91%
    01:00 +19°C° 0.4 mm 2 m/S 757 mmHg 91%
    02:00 +19°C° 0.4 mm 2 m/S 757 mmHg 92%
    03:00 +19°C° 0.4 mm 2 m/S 757 mmHg 92%
    04:00 +19°C° 1 mm 2 m/S 757 mmHg 93%
    05:00 +19°C° 1 mm 2 m/S 757 mmHg 93%
    06:00 +20°C° 1 mm 1 m/S 757 mmHg 94%
    07:00 +20°C° 1.2 mm 2 m/S 758 mmHg 89%
    08:00 +21°C° 1.2 mm 2 m/S 758 mmHg 84%
    09:00 +23°C° 1.2 mm 2 m/S 759 mmHg 79%
    10:00 +24°C° 0 mm 2 m/S 759 mmHg 74%
    11:00 +26°C° 0 mm 3 m/S 758 mmHg 68%
    12:00 +27°C° 0 mm 3 m/S 758 mmHg 62%
    13:00 +28°C° 0 mm 3 m/S 757 mmHg 59%
    14:00 +29°C° 0 mm 3 m/S 756 mmHg 55%
    15:00 +30°C° 0 mm 3 m/S 755 mmHg 51%
    16:00 +28°C° 0 mm 3 m/S 755 mmHg 56%
    17:00 +27°C° 0 mm 3 m/S 755 mmHg 61%
    18:00 +25°C° 0 mm 3 m/S 755 mmHg 66%
    19:00 +24°C° 0.1 mm 2 m/S 755 mmHg 67%
    20:00 +23°C° 0.1 mm 2 m/S 756 mmHg 68%
    21:00 +23°C° 0.1 mm 2 m/S 757 mmHg 69%
    22:00 +21°C° 0.5 mm 2 m/S 757 mmHg 75%
    23:00 +21°C° 0.5 mm 1 m/S 758 mmHg 80%
    Mehr zeigen